Starlink 32864

operational
NORAD ID: 62862 Int'l Des: 2025-022 Owner: SPXS Country: US Constellation: starlink
LEOCIRCULAR

关于 Starlink 32864

正在加载描述...

实时位置

正在加载3D地球...

即将过境

高度历史

Altitude vs Time

uPlot chart will show altitude changes over time

两行轨道根数

1 62862U 25022J 25353.82622693 .00020907 00000-0 71595-3 0 9999
2 62862 53.1590 140.4916 0000367 47.3496 312.7535 15.30203200 49671
Epoch: Dec 19, 2025 • Age: 23 hours

当前状态

高度 475.5 km
速度 7.63 km/s
星下点 6.24°N, 56.02°W
发射日期 Feb 2, 2025
运行时间 0.8 years
类型 internet

技术详情

分类 Payload
质量 730.00 kg
干质量 700.00 kg
总质量 730.00 kg
长度 0.30 m
直径 4.10 m
跨度 29.00 m
形状 Box + pan
制造商 SPXS
平台类型 Starlink V2M
阶段状态 In Orbit
所有者/国家 SPXS/US

大型星座

Loading constellations...